FW9086 Weather Reports


time (UTC)temp
C
wind
direction
speed
KPH
gust
KPH
rain 1hr
cm
rain 24hr
cm
rain mn
cm
humidity
%
barometer
mb
20260509090347 11 232 0.0 0.0 0.00 0.20 0.20 99 1004.7
20260509085844 12 166 0.0 0.0 0.00 0.20 0.20 99 1005.0
20260509085341 12 259 0.0 0.0 0.00 0.20 0.20 99 1005.2
20260509084837 12 220 0.0 0.0 0.00 0.20 0.20 99 1005.2
20260509084334 12 254 0.0 0.0 0.00 0.20 0.20 99 1005.2
20260509083832 12 243 0.0 0.0 0.00 0.20 0.20 99 1005.4
20260509083329 12 183 0.0 0.0 0.00 0.20 0.20 99 1005.1
20260509082825 12 237 0.0 0.0 0.00 0.20 0.20 99 1005.3
20260509082322 12 282 0.0 0.0 0.00 0.20 0.20 99 1005.2
20260509081820 12 211 0.0 0.0 0.18 0.20 0.20 99 1005.0
20260509081316 12 177 0.0 0.0 0.18 0.20 0.20 99 1005.2
20260509080815 12 197 0.0 0.0 0.00 0.18 0.18 99 1005.3
20260509080312 12 201 0.0 0.0 0.00 0.18 0.18 99 1005.2
20260509075810 12 189 0.0 0.0 0.00 0.18 0.18 99 1005.3
20260509075307 12 183 0.0 0.0 0.00 0.18 0.18 99 1005.4
20260509074804 12 206 0.0 0.0 0.00 0.18 0.18 99 1005.6
20260509074302 12 199 0.0 0.0 0.00 0.18 0.18 99 1005.3
20260509073758 12 191 0.0 0.0 0.00 0.18 0.18 99 1005.1
20260509073254 12 193 0.0 0.0 0.00 0.18 0.18 99 1005.5
20260509072751 12 194 0.0 0.0 0.00 0.18 0.18 99 1005.3
20260509072248 12 191 0.0 0.0 0.00 0.18 0.18 99 1005.3
20260509071744 12 200 0.0 0.0 0.00 0.18 0.18 99 1005.4
20260509071241 12 193 0.0 0.0 0.00 0.18 0.18 99 1005.3
20260509070738 12 206 0.0 0.0 0.13 0.18 0.18 99 1005.6
20260509070235 12 224 0.0 0.0 0.13 0.18 0.18 99 1005.6
20260509065731 12 181 0.0 0.0 0.00 0.15 0.15 99 1005.6
20260509065227 12 190 0.0 0.0 0.00 0.15 0.15 99 1005.7
20260509064724 12 197 0.0 0.0 0.00 0.15 0.15 99 1006.0
20260509064222 12 211 0.0 0.0 0.00 0.15 0.15 99 1005.7
20260509063719 12 186 0.0 0.0 0.00 0.15 0.15 99 1005.9
20260509063215 12 189 0.0 0.0 0.18 0.15 0.15 99 1005.8
20260509062713 12 197 0.0 0.0 0.30 0.15 0.15 99 1005.9
20260509062210 12 219 0.0 0.0 0.13 0.13 0.13 99 1006.1
20260509061707 12 227 0.0 0.0 0.18 0.10 0.10 99 1006.2
20260509061204 12 181 0.0 0.0 0.18 0.10 0.10 99 1006.2
20260509060701 12 187 0.0 0.0 0.00 0.08 0.08 99 1006.3
20260509060157 12 172 0.0 0.0 0.00 0.08 0.08 99 1006.1
20260509055653 12 240 0.0 0.0 0.00 0.08 0.08 99 1006.4
20260509055149 12 219 0.0 0.0 0.18 0.08 0.08 99 1006.4
20260509054646 12 187 0.0 0.0 0.18 0.08 0.08 99 1006.7
20260509054144 12 213 0.0 0.0 0.13 0.05 0.05 99 1006.7
20260509053642 12 242 0.0 0.0 0.13 0.05 0.05 99 1006.9
20260509053138 12 237 0.0 0.0 0.00 0.03 0.03 99 1006.9
20260509052636 12 189 0.0 0.0 0.00 0.03 0.03 99 1006.9
20260509052133 12 201 0.0 0.0 0.00 0.03 0.03 99 1006.8
20260509051631 12 233 0.0 0.0 0.00 0.03 0.03 99 1006.7
20260509051128 12 258 0.0 0.0 0.00 0.03 0.03 99 1006.7
20260509050626 12 241 0.0 0.0 0.00 0.03 0.03 99 1006.6
20260509050121 12 265 0.0 0.0 0.00 0.03 0.03 99 1006.6
20260509045620 12 245 0.0 0.0 0.00 0.03 0.03 99 1006.7
20260509045116 12 178 0.0 0.0 0.00 0.03 0.03 99 1006.6
20260509044613 12 176 0.0 0.0 0.00 0.03 0.03 99 1006.6
20260509044110 12 171 0.0 0.0 0.00 0.03 0.03 99 1006.6
20260509043607 12 182 0.0 0.0 0.00 0.03 0.03 99 1006.6
20260509043102 12 161 0.0 0.0 0.00 0.03 0.03 99 1006.9
20260509042559 12 173 0.0 0.0 0.00 0.03 0.03 99 1006.8
20260509042055 12 171 0.0 0.0 0.18 0.03 0.03 99 1006.8
20260509041552 12 201 0.0 0.0 0.18 0.03 0.03 99 1006.5
20260509041049 12 193 0.0 0.0 0.00 0.00 0.00 99 1006.8
20260509040548 12 173 0.0 0.0 0.13 0.00 0.00 99 1006.9
20260509040044 12 189 0.0 0.0 0.13 1.30 1.30 99 1006.9
20260509035541 12 172 0.0 0.0 0.00 1.27 1.27 99 1006.8
20260509035038 12 189 0.0 0.0 0.00 1.27 1.27 99 1006.9
20260509034536 12 197 0.0 0.0 0.00 1.27 1.27 99 1006.6
20260509034033 12 170 0.0 0.0 0.00 1.27 1.27 99 1006.8
20260509033530 12 179 0.0 0.0 0.00 1.27 1.27 99 1006.9
20260509033027 12 164 0.0 0.0 0.00 1.27 1.27 99 1006.7
20260509032524 12 174 0.0 0.0 0.00 1.27 1.27 99 1006.7
20260509032021 12 175 0.0 0.0 0.00 1.27 1.27 99 1006.6
20260509031519 12 187 0.0 0.0 0.00 1.27 1.27 99 1006.6
20260509031016 12 200 0.0 0.0 0.18 1.27 1.27 99 1006.6
20260509030514 12 199 0.0 0.0 0.18 1.27 1.27 99 1006.7
20260509030010 12 223 0.0 0.0 0.13 1.24 1.24 99 1006.8
20260509025506 12 179 0.0 0.0 0.13 1.24 1.24 99 1006.5
20260509025002 12 176 0.0 0.0 0.00 1.22 1.22 99 1006.9
20260509024458 12 185 0.0 0.0 0.00 1.22 1.22 99 1006.9
20260509023954 12 176 0.0 0.0 0.00 1.22 1.22 99 1006.9
20260509023452 12 196 0.0 0.0 0.18 1.22 1.22 99 1007.0
20260509022949 12 188 0.0 0.0 0.18 1.22 1.22 99 1007.1
20260509022446 12 185 0.0 0.0 0.00 1.19 1.19 99 1007.0
20260509021943 12 207 0.0 0.0 0.00 1.19 1.19 99 1007.1
20260509021440 12 220 0.0 0.0 0.00 1.19 1.19 99 1007.2
20260509020937 12 221 0.0 0.0 0.13 1.19 1.19 99 1007.0
20260509020436 12 180 0.0 0.0 0.13 1.19 1.19 99 1006.9
20260509015932 12 247 0.0 0.0 0.30 1.19 1.19 99 1007.1
20260509015431 12 249 0.0 0.0 0.18 1.17 1.17 99 1007.1
20260509014927 12 244 0.0 0.0 0.13 1.14 1.14 99 1007.0
20260509014424 12 220 4.8 4.8 0.13 1.14 1.14 99 1007.1
20260509013920 12 243 3.2 3.2 0.00 1.12 1.12 99 1007.1
20260509013417 12 201 0.0 0.0 0.18 1.12 1.12 99 1006.8
20260509012913 12 194 0.0 0.0 0.18 1.12 1.12 99 1006.9
20260509012410 12 248 0.0 1.6 0.00 1.09 1.09 99 1006.9
20260509011907 12 200 1.6 1.6 0.00 1.09 1.09 99 1006.8
20260509011404 12 236 0.0 1.6 0.00 1.09 1.09 99 1006.9
20260509010902 12 244 0.0 0.0 0.13 1.09 1.09 99 1006.7
20260509010400 12 245 0.0 0.0 0.13 1.09 1.09 99 1007.1
20260509005856 12 247 1.6 3.2 0.18 1.07 1.07 99 1006.8
20260509005354 12 243 1.6 3.2 0.18 1.07 1.07 99 1006.9
20260509004849 12 241 0.0 0.0 0.18 1.04 1.04 99 1007.1
20260509004346 12 243 0.0 0.0 0.18 1.04 1.04 99 1007.0
20260509003843 12 255 0.0 0.0 0.13 1.02 1.02 99 1006.8
20260509003341 12 220 0.0 0.0 0.13 1.02 1.02 99 1006.9
20260509002838 12 228 0.0 0.0 0.00 0.99 0.99 99 1006.8
20260509002335 12 204 0.0 0.0 0.18 0.99 0.99 99 1006.7
20260509001833 12 217 0.0 0.0 0.18 0.99 0.99 99 1007.0
20260509001328 12 186 0.0 0.0 0.13 0.97 0.97 99 1007.0
20260509000826 12 204 0.0 0.0 0.13 0.97 0.97 99 1006.8
20260509000325 12 250 0.0 0.0 0.43 0.97 0.97 99 1007.1
20260508235820 12 268 0.0 0.0 0.48 0.94 0.94 99 1006.8
20260508235317 12 204 0.0 0.0 0.30 0.89 0.89 99 1007.0
20260508234814 12 191 0.0 0.0 0.43 0.86 0.86 99 1007.2
20260508234310 12 255 0.0 0.0 0.48 0.84 0.84 99 1007.4
20260508233809 12 227 0.0 0.0 0.30 0.81 0.81 99 1007.4
20260508233308 12 184 0.0 0.0 0.30 0.79 0.79 99 1007.0
20260508232805 12 189 0.0 0.0 0.30 0.76 0.76 99 1007.2
20260508232301 12 190 0.0 0.0 0.36 0.74 0.74 99 1007.1
20260508231800 12 195 0.0 0.0 0.18 0.71 0.71 99 1007.2
20260508231255 12 186 0.0 0.0 0.13 0.69 0.69 99 1007.1
20260508230752 12 172 0.0 0.0 0.30 0.69 0.69 99 1006.9
20260508230248 12 171 0.0 0.0 0.48 0.66 0.66 99 1007.0
20260508225746 12 170 0.0 0.0 0.71 0.64 0.64 99 1007.3
20260508225242 12 157 0.0 0.0 0.61 0.58 0.58 99 1007.6
20260508224740 12 192 0.0 0.0 0.30 0.53 0.53 99 1007.8
20260508224238 12 183 0.0 0.0 0.13 0.48 0.48 98 1007.7
20260508223735 12 160 0.0 0.0 0.13 0.48 0.48 98 1007.3
20260508223232 12 149 0.0 0.0 0.18 0.46 0.46 98 1007.4
20260508222730 12 144 0.0 0.0 0.30 0.46 0.46 98 1007.3
20260508222227 12 144 0.0 0.0 0.48 0.43 0.43 98 1007.2
20260508221723 12 144 0.0 0.0 0.48 0.41 0.41 98 1007.6
20260508221219 12 144 0.0 0.0 0.30 0.38 0.38 98 1007.4
20260508220715 13 154 0.0 0.0 0.30 0.36 0.36 98 1007.3
20260508220212 13 151 0.0 0.0 0.30 0.33 0.33 97 1007.4
20260508215708 13 168 0.0 0.0 0.43 0.30 0.30 97 1007.6
20260508215205 13 172 0.0 0.0 0.61 0.28 0.28 97 1007.6
20260508214702 13 171 0.0 0.0 0.61 0.23 0.23 97 1007.6
20260508214200 13 178 0.0 0.0 0.48 0.18 0.18 96 1007.7
20260508213656 13 155 0.0 0.0 0.48 0.15 0.15 96 1007.8
20260508213152 13 161 0.0 0.0 0.30 0.10 0.10 95 1007.7
20260508212649 13 163 0.0 0.0 0.13 0.08 0.08 94 1007.3
20260508212146 13 142 0.0 0.0 0.00 0.05 0.05 93 1007.3
20260508211641 13 136 0.0 0.0 0.18 0.05 0.05 92 1007.1
20260508211137 13 148 0.0 0.0 0.18 0.05 0.05 90 1007.1
20260508210634 14 114 0.0 1.6 0.00 0.03 0.03 88 1006.9
20260508210132 15 136 0.0 0.0 0.00 0.03 0.03 86 1007.1
20260508205629 15 147 0.0 0.0 0.13 0.03 0.03 83 1007.2
20260508205125 15 149 0.0 0.0 0.13 0.03 0.03 81 1007.1
20260508204621 15 154 0.0 0.0 0.00 0.00 0.00 77 1007.0
20260508204117 16 189 1.6 1.6 0.00 0.00 0.00 77 1007.2
20260508203614 16 186 1.6 1.6 0.00 0.00 0.00 76 1006.9
20260508203110 16 155 0.0 1.6 0.00 0.00 0.00 72 1006.9
20260508202606 17 193 3.2 3.2 0.00 0.00 0.00 70 1006.9
20260508202104 17 182 1.6 1.6 0.00 0.00 0.00 69 1006.8
20260508201600 17 160 0.0 0.0 0.00 0.00 0.00 67 1006.9
20260508201057 17 224 3.2 3.2 0.00 0.00 0.00 64 1007.1
20260508200554 17 200 1.6 1.6 0.00 0.00 0.00 67 1007.2
20260508200049 17 259 4.8 4.8 0.00 0.00 0.00 61 1006.9
20260508195546 17 232 4.8 4.8 0.00 0.00 0.00 61 1007.3
20260508195043 17 246 4.8 4.8 0.00 0.00 0.00 62 1007.0
20260508194540 17 248 4.8 4.8 0.00 0.00 0.00 63 1007.0
20260508194037 17 247 4.8 4.8 0.00 0.00 0.00 60 1007.4
20260508193533 17 165 3.2 3.2 0.00 0.00 0.00 66 1007.4
20260508193030 17 208 3.2 3.2 0.00 0.00 0.00 66 1007.6
20260508192527 18 188 3.2 3.2 0.00 0.00 0.00 63 1007.5
20260508192024 18 173 3.2 3.2 0.00 0.00 0.00 64 1007.5
20260508191521 18 199 1.6 1.6 0.00 0.00 0.00 67 1007.7
20260508191017 17 248 3.2 3.2 0.00 0.00 0.00 66 1007.9
20260508190515 17 179 0.0 1.6 0.00 0.00 0.00 67 1007.9
20260508190011 17 203 1.6 1.6 0.00 0.00 0.00 67 1007.8
20260508185508 17 202 1.6 1.6 0.00 0.00 0.00 65 1008.0
20260508185006 17 180 1.6 1.6 0.00 0.00 0.00 66 1008.2
20260508184504 17 249 3.2 3.2 0.00 0.00 0.00 66 1008.3
20260508184000 17 225 1.6 3.2 0.00 0.00 0.00 66 1008.7
20260508183456 17 239 3.2 3.2 0.00 0.00 0.00 64 1008.3
20260508182951 16 272 4.8 4.8 0.00 0.00 0.00 65 1008.4
20260508182449 16 201 1.6 1.6 0.00 0.00 0.00 67 1008.7
20260508181944 16 242 4.8 4.8 0.00 0.00 0.00 66 1008.6
20260508181441 16 247 3.2 3.2 0.00 0.00 0.00 67 1008.7
20260508180938 16 264 4.8 4.8 0.00 0.00 0.00 65 1008.4
20260508180435 17 215 4.8 4.8 0.00 0.00 0.00 67 1008.6
20260508175931 17 258 8.0 9.7 0.00 0.00 0.00 65 1008.9
20260508175427 17 223 3.2 3.2 0.00 0.00 0.00 64 1008.8
20260508174926 17 250 4.8 4.8 0.00 0.00 0.00 66 1008.9
20260508174423 17 289 4.8 4.8 0.00 0.00 0.00 67 1008.9
20260508173919 17 248 6.4 8.0 0.00 0.00 0.00 64 1009.0
20260508173417 17 265 6.4 8.0 0.00 0.00 0.00 64 1009.1
20260508172912 17 197 4.8 4.8 0.00 0.00 0.00 64 1009.2
20260508172410 17 223 3.2 3.2 0.00 0.00 0.00 65 1009.4
20260508171906 16 239 4.8 8.0 0.00 0.00 0.00 62 1009.5
20260508171403 16 244 4.8 4.8 0.00 0.00 0.00 63 1009.1
20260508170859 16 247 6.4 8.0 0.00 0.00 0.00 69 1009.3
20260508170357 17 258 4.8 8.0 0.00 0.00 0.00 67 1009.3
20260508165853 17 249 4.8 4.8 0.00 0.00 0.00 61 1009.4
20260508165351 17 224 4.8 4.8 0.00 0.00 0.00 63 1009.7
20260508164847 18 244 6.4 8.0 0.00 0.00 0.00 61 1009.6
20260508164344 18 255 6.4 8.0 0.00 0.00 0.00 61 1009.6
20260508163841 18 230 6.4 8.0 0.00 0.00 0.00 61 1009.7
20260508163339 18 292 6.4 8.0 0.00 0.00 0.00 61 1009.9
20260508162834 17 242 3.2 4.8 0.00 0.00 0.00 62 1009.7
20260508162331 17 255 6.4 9.7 0.00 0.00 0.00 61 1010.0
20260508161829 17 249 4.8 4.8 0.00 0.00 0.00 64 1010.2
20260508161326 17 263 4.8 4.8 0.00 0.00 0.00 65 1010.2
20260508160823 17 233 6.4 8.0 0.00 0.00 0.00 64 1010.1
20260508160322 17 240 8.0 9.7 0.00 0.00 0.00 60 1010.2
20260508155818 18 212 4.8 4.8 0.00 0.00 0.00 61 1010.2
20260508155315 17 257 6.4 8.0 0.00 0.00 0.00 60 1010.0
20260508154812 17 246 8.0 9.7 0.00 0.00 0.00 62 1010.1
20260508154310 17 250 4.8 8.0 0.00 0.00 0.00 64 1010.2
20260508153806 17 227 6.4 8.0 0.00 0.00 0.00 61 1010.4
20260508153304 18 251 6.4 8.0 0.00 0.00 0.00 58 1010.1
20260508152759 17 229 4.8 8.0 0.00 0.00 0.00 62 1010.2
20260508152256 17 260 6.4 8.0 0.00 0.00 0.00 61 1010.3
20260508151752 17 293 8.0 9.7 0.00 0.00 0.00 63 1010.2
20260508151249 16 239 8.0 8.0 0.00 0.00 0.00 63 1010.1
20260508150745 16 263 4.8 8.0 0.00 0.00 0.00 64 1010.4
20260508150242 16 254 4.8 4.8 0.00 0.00 0.00 61 1010.4
20260508145738 17 265 6.4 8.0 0.00 0.00 0.00 65 1010.5
20260508145235 17 230 6.4 9.7 0.00 0.00 0.00 62 1010.3
20260508144731 16 169 4.8 8.0 0.00 0.00 0.00 63 1010.3
20260508144230 17 231 4.8 4.8 0.00 0.00 0.00 62 1010.4
20260508143727 16 221 4.8 8.0 0.00 0.00 0.00 62 1010.5
20260508143224 16 262 9.7 12.9 0.00 0.00 0.00 63 1010.4
20260508142720 16 258 9.7 12.9 0.00 0.00 0.00 64 1010.4
20260508142217 16 227 3.2 4.8 0.00 0.00 0.00 64 1010.7
20260508141713 16 263 8.0 9.7 0.00 0.00 0.00 64 1010.7
20260508141211 16 216 3.2 3.2 0.00 0.00 0.00 62 1010.7
20260508140708 16 250 6.4 8.0 0.00 0.00 0.00 63 1010.6
20260508140205 16 244 6.4 8.0 0.00 0.00 0.00 64 1010.8
20260508135701 15 225 4.8 8.0 0.00 0.00 0.00 63 1010.7
20260508135202 15 263 8.0 11.3 0.00 0.00 0.00 64 1010.6
20260508134658 15 257 11.3 12.9 0.00 0.00 0.00 65 1010.9
20260508134155 15 230 4.8 4.8 0.00 0.00 0.00 64 1010.8
20260508133652 14 244 6.4 8.0 0.00 0.00 0.00 66 1010.9
20260508133150 13 229 4.8 8.0 0.00 0.00 0.00 66 1010.9
20260508132647 13 248 6.4 8.0 0.00 0.00 0.00 67 1011.1
20260508132144 13 241 4.8 8.0 0.00 0.00 0.00 69 1010.9
20260508131640 13 251 4.8 4.8 0.00 0.00 0.00 66 1010.9
20260508131136 13 243 6.4 8.0 0.00 0.00 0.00 67 1011.1
20260508130633 12 234 4.8 4.8 0.00 0.00 0.00 69 1010.9
20260508130130 12 243 8.0 9.7 0.00 0.00 0.00 67 1011.1
20260508125625 12 236 8.0 9.7 0.00 0.00 0.00 69 1011.0
20260508125123 12 231 4.8 4.8 0.00 0.00 0.00 68 1011.0
20260508124621 12 215 3.2 3.2 0.00 0.00 0.00 68 1010.8
20260508124118 11 241 4.8 4.8 0.00 0.00 0.00 68 1011.0
20260508123616 11 244 4.8 4.8 0.00 0.00 0.00 68 1010.9
20260508123113 11 254 6.4 8.0 0.00 0.00 0.00 69 1010.8
20260508122609 11 237 3.2 3.2 0.00 0.00 0.00 71 1010.9
20260508122107 11 218 3.2 3.2 0.00 0.00 0.00 71 1010.8
20260508121605 11 238 4.8 4.8 0.00 0.00 0.00 69 1010.8
20260508121103 10 251 4.8 8.0 0.00 0.00 0.00 73 1011.0
20260508120600 10 252 4.8 4.8 0.00 0.00 0.00 72 1011.1
20260508120058 10 247 6.4 8.0 0.00 0.00 0.00 71 1010.8
20260508115555 10 240 3.2 3.2 0.00 0.00 0.00 73 1010.9
20260508115051 10 256 4.8 4.8 0.00 0.00 0.00 72 1010.8
20260508114549 10 265 3.2 4.8 0.00 0.00 0.00 73 1010.8
20260508114045 10 233 3.2 4.8 0.00 0.00 0.00 72 1010.9
20260508113542 10 199 1.6 1.6 0.00 0.00 0.00 72 1010.9
20260508113040 10 255 3.2 3.2 0.00 0.00 0.00 74 1010.7
20260508112536 9 227 4.8 4.8 0.00 0.00 0.00 73 1010.7
20260508112033 9 254 3.2 3.2 0.00 0.00 0.00 73 1010.7
20260508111530 9 250 4.8 4.8 0.00 0.00 0.00 74 1010.8
20260508111027 9 188 3.2 3.2 0.00 0.00 0.00 72 1010.5
20260508110525 9 197 1.6 1.6 0.00 0.00 0.00 74 1010.9
20260508110021 9 230 4.8 4.8 0.00 0.00 0.00 73 1010.7
20260508105516 9 250 4.8 4.8 0.00 0.00 0.00 73 1010.8
20260508105014 9 244 3.2 3.2 0.00 0.00 0.00 73 1010.8
20260508104511 9 247 3.2 3.2 0.00 0.00 0.00 74 1010.6
20260508104007 9 183 1.6 1.6 0.00 0.00 0.00 73 1010.8
20260508103504 9 201 1.6 1.6 0.00 0.00 0.00 73 1010.5
20260508103001 9 246 3.2 3.2 0.00 0.00 0.00 72 1010.7
20260508102500 9 197 1.6 1.6 0.00 0.00 0.00 73 1010.5
20260508101956 9 250 3.2 3.2 0.00 0.00 0.00 74 1010.5
20260508101454 9 200 1.6 1.6 0.00 0.00 0.00 74 1010.3
20260508100951 9 230 1.6 3.2 0.00 0.00 0.00 73 1010.5
20260508100450 9 255 3.2 4.8 0.00 0.00 0.00 75 1010.6
20260508095945 9 200 3.2 3.2 0.00 0.00 0.00 75 1010.5
20260508095443 9 246 4.8 4.8 0.00 0.00 0.00 73 1010.5
20260508094940 9 245 4.8 4.8 0.00 0.00 0.00 74 1010.5
20260508094437 9 194 3.2 3.2 0.00 0.00 0.00 72 1010.4
20260508093933 9 204 1.6 1.6 0.00 0.00 0.00 74 1010.5
20260508093431 9 232 3.2 3.2 0.00 0.00 0.00 74 1010.6
20260508092928 9 231 3.2 3.2 0.00 0.00 0.00 76 1010.4
20260508092426 9 193 3.2 3.2 0.00 0.00 0.00 75 1010.3
20260508091924 9 197 1.6 1.6 0.00 0.00 0.00 76 1010.3
20260508091421 8 232 1.6 3.2 0.00 0.00 0.00 81 1010.6
20260508090918 8 152 0.0 0.0 0.00 0.00 0.00 86 1010.4